This is the latest recevied weather packets stored in our database for station/object KF4PPJ. If no packets are shown the sender has not sent any weather packets the latest 10 day(s).
| Time | Temp. | Humidity | Pressure | Rain* | Wind** | Luminosity | Snow |
|---|---|---|---|---|---|---|---|
| 1778031027 | 17.78° C | 68% | 1017.7 hPa | 0 mm | - | 54 W/m² | - |
| 1778030723 | 17.78° C | 68% | 1017.8 hPa | 0 mm | - | 59 W/m² | - |
| 1778030420 | 17.78° C | 68% | 1017.9 hPa | 0 mm | - | 90 W/m² | - |
| 1778030118 | 17.78° C | 67% | 1018.1 hPa | 0 mm | - | 190 W/m² | - |
| 1778029814 | 17.78° C | 67% | 1017.9 hPa | 0 mm | - | 211 W/m² | - |
| 1778029513 | 18.33° C | 67% | 1017.8 hPa | 0 mm | - | 277 W/m² | - |
| 1778029209 | 18.33° C | 67% | 1017.9 hPa | 0 mm | - | 275 W/m² | - |
| 1778028907 | 18.33° C | 67% | 1018 hPa | 0 mm | - | 294 W/m² | - |
| 1778028602 | 17.78° C | 67% | 1018 hPa | 0 mm | - | 276 W/m² | - |
| 1778028300 | 17.78° C | 67% | 1017.9 hPa | 0 mm | - | 286 W/m² | - |
| 1778027996 | 18.33° C | 66% | 1018.1 hPa | 0 mm | - | 318 W/m² | - |
| 1778027692 | 18.33° C | 67% | 1018.1 hPa | 0 mm | - | 323 W/m² | - |
| 1778027389 | 18.33° C | 65% | 1018.2 hPa | 0 mm | - | 357 W/m² | - |
| 1778027085 | 18.33° C | 66% | 1018.2 hPa | 0 mm | - | 367 W/m² | - |
| 1778026780 | 17.78° C | 67% | 1018.2 hPa | 0 mm | - | 373 W/m² | - |
| 1778026477 | 18.33° C | 67% | 1018.1 hPa | 0 mm | - | 403 W/m² | - |
| 1778026175 | 18.33° C | 67% | 1018.2 hPa | 0 mm | - | 411 W/m² | - |
| 1778025872 | 18.33° C | 66% | 1018.3 hPa | 0 mm | - | 436 W/m² | - |
| 1778025569 | 18.33° C | 66% | 1018.2 hPa | 0 mm | - | 447 W/m² | - |
| 1778025267 | 18.33° C | 67% | 1018.2 hPa | 0 mm | - | 437 W/m² | - |
| 1778024964 | 17.78° C | 68% | 1018.4 hPa | 0 mm | - | 462 W/m² | - |
| 1778024661 | 17.78° C | 68% | 1018.4 hPa | 0 mm | - | 471 W/m² | - |
| 1778024358 | 18.33° C | 67% | 1018.4 hPa | 0 mm | - | 466 W/m² | - |
| 1778024056 | 17.78° C | 68% | 1018.5 hPa | 0 mm | - | 522 W/m² | - |
| 1778023753 | 17.78° C | 68% | 1018.6 hPa | 0 mm | - | 495 W/m² | - |
* Rain latest hour (hover to see other rain measurements)
** Current wind speed in m/s (hover to see current wind gust speed)